Regional Weather Roundup
Issued by NWS

Home | Current Version | Previous Version | Graphics & Text | Print | Product List | Glossary On
Versions: 1 2 3 4 5 6 7 8 9 10 11 12 13 14 15 16 17 18 19 20 21 22 23 24 25 26 27 28 29 30 31 32 33 34 35 36 37 38 39 40 41 42 43 44 45 46 47 48 49 50
000
ASUS43 KMPX 260910
RWRMN
WEATHER ROUNDUP FOR MINNESOTA
NATIONAL WEATHER SERVICE TWIN CITIES/CHANHASSEN MN
300 AM CST FRI DEC 26 2014


NOTE: "FAIR" INDICATES FEW OR NO CLOUDS BELOW 12,000 FEET WITH NO
SIGNIFICANT WEATHER AND/OR OBSTRUCTIONS TO VISIBILITY. N/A MEANS
CURRENT SKY AND/OR WEATHER CONDITIONS ARE NOT AVAILABLE.

MNZ060>063-068>070-261000-
   Twin Cities Metro

CITY           SKY/WX    TMP DP  RH WIND       PRES   REMARKS
TWIN CITIES    CLOUDY    32  30  92 N7        29.88R WCI  26
ST PAUL        CLOUDY    32  30  92 N6        29.90R WCI  26
CRYSTAL        CLOUDY    33  30  88 N6        29.88R WCI  28
BLAINE         CLOUDY    34  34 100 N7        29.88S FOG     WCI  28
LAKEVILLE      CLOUDY    30  28  93 N6        29.86S FOG     WCI  24
EDEN PRAIRIE   CLOUDY    33  30  88 N8        29.87R WCI  26
SOUTH ST PAUL  CLOUDY    33  31  92 N5        29.88S WCI  28
LAKE ELMO      CLOUDY    32  32 100 N5        29.89R WCI  27
$$
MNZ001>005-007-008-013>017-022>024-027-028-261000-
   Northwest Minnesota

CITY           SKY/WX    TMP DP  RH WIND       PRES   REMARKS
BEMIDJI        CLOUDY    24  20  86 N6        29.97R WCI  17
HALLOCK        FLURRIES  25  21  86 N9        30.06R WCI  15
ROSEAU         CLOUDY    25  19  80 NW6       30.02R WCI  18
WARROAD        CLOUDY    23  19  86 NW8       30.02R WCI  14
THIEF RVR FALL CLOUDY    25  21  86 N9        30.02R WCI  15
CROOKSTON      CLOUDY    25  19  80 N10       30.06R WCI  15
FOSSTON        CLOUDY    21  19  93 N13       30.00R WCI   9
DETROIT LAKES  CLOUDY    27  25  93 N5        29.98R WCI  21
MOORHEAD       CLOUDY    25  25 100 N17       30.03R WCI  11
PARK RAPIDS    CLOUDY    26  20  77 N8        29.95R WCI  18
MAHNOMEN       CLOUDY    24  21  86 N9        29.99R WCI  15
$$
MNZ006-009>011-018-025>026-261000-
   North Central Minnesota

CITY           SKY/WX    TMP DP  RH WIND       PRES   REMARKS
BAUDETTE       CLOUDY    23  18  81 NW7       29.99R WCI  15
FLAG ISLAND    CLOUDY    21  18  86 N17       30.00R WCI   7
INTL FALLS     CLOUDY    26  23  88 NW8       29.96R WCI  18
WASKISH        CLOUDY    25  21  86 CALM      29.99R
BIG FORK       CLOUDY    27  21  80 N3        29.96R
LONGVILLE      CLOUDY    27  21  80 N3        29.95R
GRAND RAPIDS   CLOUDY    27  21  80 N9        29.93R WCI  17
CRANE LAKE     CLOUDY    27  23  86 CALM      29.97R
ORR            CLOUDY    27  21  80 CALM      29.92R
COOK           CLOUDY    27  21  80 CALM      29.94S
WALKER         CLOUDY    24  22  91 N3        29.96R
$$
MNZ012-019>021-037-261000-
   Northeast Minnesota

CITY           SKY/WX    TMP DP  RH WIND       PRES   REMARKS
DULUTH         CLOUDY    29  23  78 N9        29.90R WCI  20
ELY            CLOUDY    27  21  80 CALM      29.93R
HIBBING        CLOUDY    28  21  75 N6        29.94R WCI  22
EVELETH        CLOUDY    28  23  80 N5        29.94R WCI  23
DULUTH HARBOR  CLOUDY    34  28  80 N13       29.95R WCI  25
TWO HARBORS    CLOUDY    34  27  75 N5        29.90R WCI  30
SILVER BAY     CLOUDY    30  25  80 NW5       29.91R WCI  25
GRAND MARAIS     N/A     32  24  72 VRB3      29.95R
G MARAIS ARPRT CLOUDY    25  19  80 CALM      29.89S
$$
MNZ029>031-032-039>041-046>048-054>057-064-261000-
   West Central Minnesota

CITY           SKY/WX    TMP DP  RH WIND       PRES   REMARKS
FERGUS FALLS   CLOUDY    25  21  86 N8        30.00R WCI  16
WHEATON        CLOUDY    25  21  86 N12G17    30.01R WCI  14
MORRIS         FLURRIES  27  25  93 N14       29.95R WCI  15
ALEXANDRIA     CLOUDY    26  22  84 N15       29.94R WCI  14
ELBOW LAKE     CLOUDY    26  23  89 N12       29.96R WCI  15
WADENA         CLOUDY    25  21  86 N12       29.95R WCI  14
GLENWOOD       LGT SNOW  27  25  93 N10       29.93R WCI  17
APPLETON       CLOUDY    28  25  86 N15       29.95R WCI  17
BENSON         MIX PCPN  27  25  93 N9        29.94R WCI  17
ORTONVILLE     FLURRIES  27  21  80 N13       29.97R WCI  16
MADISON          N/A     30  27  86 N13       29.96R WCI  20
WILLMAR        CLOUDY    30  27  86 N10       29.93R WCI  21
$$
MNZ033>034-036-042>043-049>051-058-059-261000-
   Central Minnesota

CITY           SKY/WX    TMP DP  RH WIND       PRES   REMARKS
ST CLOUD       CLOUDY    32  27  81 N7        29.91R WCI  26
SAUK CENTRE    LGT SNOW  27  25  93 N9G17     29.92R WCI  17
PAYNESVILLE    CLOUDY    27  26  96 N8        29.93R WCI  18
AITKIN         CLOUDY    30  23  74 N7        29.92R WCI  23
PINE RIVER     CLOUDY    27  21  80 N9        29.98R WCI  17
BRAINERD       CLOUDY    27  22  81 N13       29.94R WCI  16
STAPLES        CLOUDY    25  21  86 N7        29.94R WCI  17
LONG PRAIRIE   LGT SNOW  27  23  86 N12G17    29.93R WCI  16
LITTLE FALLS   LGT SNOW  28  27  93 N5        29.93R WCI  23
LITCHFIELD     MIX PCPN  30  30 100 N7        29.92R WCI  23
BUFFALO        CLOUDY    31  29  93 N6        29.91R WCI  25
MAPLE LAKE     CLOUDY    31  31  99 N6        29.91R WCI  25
$$
MNZ037-044-045-052-053-261000-
   East Central Minnesota

CITY           SKY/WX    TMP DP  RH WIND       PRES   REMARKS
PRINCETON      CLOUDY    30  28  93 N6        29.91S WCI  24
MORA           MOCLDY    30  27  86 CALM      29.93R
CAMBRIDGE      LGT SNOW  32  27  80 N5        29.89S WCI  27
RUSH CITY      CLOUDY    31  30  96 N5        29.91S WCI  26
MOOSE LAKE     LGT SNOW  30  28  93 N3        29.91R
HINCKLEY       CLOUDY    32  30  93 CALM      29.92R
CLOQUET        CLOUDY    28  25  86 N6        29.92R WCI  22
MCGREGOR       CLOUDY    30  25  80 N9        29.93R WCI  22
$$
MNZ071>073-080-081-089-090-097-098-261000-
   Southwest Minnesota

CITY           SKY/WX    TMP DP  RH WIND       PRES   REMARKS
MONTEVIDEO     CLOUDY    27  27 100 NE14      29.95R WCI  15
GRANITE FALLS  CLOUDY    28  26  92 NW12      29.94R WCI  18
CANBY          CLOUDY    27  25  92 NW12G18   29.96R WCI  16
MARSHALL       CLOUDY    27  23  86 N13       29.93R WCI  16
REDWOOD FALLS  CLOUDY    31  28  89 N10       29.90R WCI  22
OLIVIA         CLOUDY    30  28  93 N10       29.91R WCI  21
PIPESTONE      LGT SNOW  27  25  93 NE15G23   29.88R WCI  15
WINDOM         CLOUDY    30  30 100 N15       29.85S FOG     WCI  19
WORTHINGTON    CLOUDY    30 -18  11 N15       29.86R WCI  19
JACKSON        CLOUDY    32  32 100 VRB13     29.85R FOG     WCI  22
TRACY          CLOUDY    29  28  96 N14G20    29.90R WCI  19
SLAYTON        MIX PCPN  28  27  99 N16       29.88R WCI  15
$$
MNZ065>067-074>077-082>085-091>093-261000-
   South Central Minnesota

CITY           SKY/WX    TMP DP  RH WIND       PRES   REMARKS
MANKATO        CLOUDY    32  28  86 N13       29.85R WCI  22
NEW ULM        CLOUDY    32  30  93 N8        29.88R FOG     WCI  25
ST JAMES       CLOUDY    34  30  86 N10       29.87R FOG     WCI  26
FAIRMONT       CLOUDY    32  28  86 N12       29.83R WCI  23
GLENCOE        CLOUDY    33  32  96 N7        29.88R FOG     WCI  27
FARIBAULT      CLOUDY    30  30 100 N7        29.85R FOG     WCI  23
OWATONNA       CLOUDY    32  30  93 CALM      29.83S
WASECA         CLOUDY    32  30  93 N9        29.85R FOG     WCI  24
ALBERT LEA     PTCLDY    30  30 100 CALM      29.81S
$$
MNZ078>079-086>088-094>096-261000-
   Southeast Minnesota

CITY           SKY/WX    TMP DP  RH WIND       PRES   REMARKS
ROCHESTER      MOCLDY    29  27  92 NE6       29.83R WCI  23
RED WING       CLOUDY    32  30  93 NE5       29.86S WCI  27
STANTON        CLOUDY    32  30  93 NE6       29.85R FOG     WCI  26
DODGE CENTER   CLOUDY    30  30 100 NE5       29.82S WCI  25
WINONA         CLOUDY    30  30 100 CALM      29.87R
AUSTIN         PTCLDY    28  27  93 CALM      29.82R
PRESTON        PTCLDY    31  28  88 CALM      29.83R
$$
ABBREVIATIONS USED IN REMARKS
   TC - TEMPERATURES IN CELSIUS
  WCI - WIND CHILL INDEX
   HX - HEAT INDEX
  VSB - VISIBILITY
$$



USA.gov is the U.S. government's official web portal to all federal, state and local government web resources and services.